Orbital Elements at Epoch 2459200.5 (2020-Dec-17.0) TDB
Reference: JPL 33 (heliocentric ecliptic J2000)
Element | Value | Uncertainty (1-sigma) | Units |
e | .1954860092225594 | 1.4396e-08 | |
a | 3.102622226731599 | 1.5686e-08 | au |
q | 2.496102989502628 | 4.5967e-08 | au |
i | 7.251403357042239 | 5.3746e-07 | deg |
node | 292.3858025407137 | 7.8829e-06 | deg |
peri | 335.4212395122478 | 8.4521e-06 | deg |
M | 3.013153710521813 | 5.8155e-06 | deg |
tp | 2459183.792534917007 (2020-Nov-30.29253492) | 3.2183e-05 | TDB |
period | 1996.143578362608 5.47 | 1.5138e-05 4.145e-08 | d yr |
n | .1803477484797461 | 1.3677e-09 | deg/d |
Q | 3.70914146396057 | 1.8753e-08 | au |
|
| | Orbit Determination Parameters
Additional Information
|